Tracking 19286 objects as of 18-Nov-2018
HD Live streaming from Space Station
objects crossing your sky now

COSMOS 413

Track COSMOS 413 now!
10-day predictions
COSMOS 413 is classified as:


NORAD ID: 5212
Int'l Code: 1971-041C
Perigee: 1,480.5 km
Apogee: 1,514.8 km
Inclination: 74.0 °
Period: 115.8 minutes
Semi major axis: 7868 km
RCS: 0.726 m2 (medium)
Launch date: May 7, 1971
Source: Commonwealth of Independent States (former USSR) (CIS)
Launch site: PLESETSK MISSILE AND SPACE COMPLEX (PKMTR)
aabbcc
Your satellite tracking list
Your tracking list is empty




NASA's NSSDC Master Catalog

Two Line Element Set (TLE):
1  5212U 71041C   18321.92778830 +.00000006 +00000-0 +15810-3 0  9996
2  5212 074.0139 307.2969 0021825 343.3788 041.8345 12.43811798158267
Source of the keplerian elements: AFSPC